Location: Martley
(52.2333°N, 2.3667°W)
Time: 04:33:31
(UTC+00:00)

Meteor 1-23 Rocket - Pass Details

Date: 11 December 2019
Orbit: 840 x 886 km, 81.3° (Epoch: 22 January)

Event Time Altitude Azimuth Distance (km) Brightness Sun altitude
Rises 07:00:21 0° 345° (NNW) 3,504 7.0 -9.7°
Reaches altitude 10° 07:02:50 10° 343° (NNW) 2,558 6.3 -9.3°
Maximum altitude 07:08:36 67° 262° (W) 955 4.3 -8.5°
Drops below altitude 10° 07:14:17 10° 181° (S) 2,517 7.0 -7.8°
Sets 07:16:42 0° 179° (S) 3,444 7.8 -7.4°
